Location: Newark
(46.7000°N, 60.6000°W)
Time: 09:55:57
(UTC+00:00)

Transit 2A Rocket - Pass Details

Date: 30 October 2020
Orbit: 588 x 915 km, 66.7° (Epoch: 23 November)

Event Time Altitude Azimuth Distance (km) Brightness Sun altitude
Rises 23:04:07 0° 314° (NW) 3,240 9.0 -23.6°
Reaches altitude 10° 23:07:15 10° 297° (WNW) 2,241 8.3 -24.1°
Maximum altitude 23:10:39 18° 255° (WSW) 1,671 7.5 -24.7°
Drops below altitude 10° 23:13:51 10° 212° (SSW) 2,090 7.5 -25.3°
Sets 23:16:40 0° 193° (SSW) 2,942 8.1 -25.7°
